Zurück zum Katalog

ESSA 7

TOS-E

AktivWetterSSO
NORAD 3345·PAYLOAD·🇺🇸 United States

Gestartet Aug 16, 1968 von Vandenberg Space Force Base

Loading…

Nächste Überflüge (nächste 24 Stunden)

TLE

AktuellSource: Space-Track

Epoche: Sep 14, 2026, 15:24 UTC

1 03345U 68069A   26257.64185522 -.00000036  00000-0  50831-4 0  9990
2 03345 101.5720 221.5798 0026819 356.4825 177.3322 12.53011773656187

Verfolge ESSA 7 in Echtzeit mit AllMySat

Download on the App Store